Home   Weather   Chilliwack   Past weeks

Flag for Canada Past Weather in Chilliwack, British Columbia, Canada — Yesterday and Last 2 Weeks

Now
40 °F

Quite cool.


Feels Like: 37 °F
Forecast: 31 / 41 °F
Wind: 5 mph from South

Location: Agassiz

Current Time: Dec 4, 2016 at 6:35:40 am

Latest Report: Dec 4, 2016 at 6:00 am


Visibility: N/A

Pressure: 29.91 "Hg

Humidity: 82%

Dew Point: 35 °F

Location of ChilliwackLocation

Past Weather in Chilliwack — Graph

°F

Chilliwack Temperature Yesterday

Maximum temperature yesterday: 49 °F (at 12:00 am)
Minimum temperature yesterday: 41 °F (at 11:00 pm)
Average temperature yesterday: 45 °F

High & Low Weather Summary for the Past Weeks

 TemperatureHumidityPressure
High51 °F (Nov 21, 2:00 pm)100% (Nov 20, 6:00 pm)30.33 "Hg (Nov 20, 6:00 pm)
Low33 °F (Dec 1, 7:00 am)68% (Nov 19, 6:00 am)29.44 "Hg (Nov 27, 7:00 pm)
Average43 °F89%29.90 "Hg
* Reported Nov 19 5:00 am — Dec 4 5:00 am, Chilliwack, Weather by CustomWeather, © 2016

Note: Actual official high and low records may vary slightly from our data, if they occured in-between our weather recording intervals... More about our weather records

Advertising

Chilliwack Weather History for the Previous 24 Hours

Scroll right to see more
 ConditionsComfort  
Time TempWeatherWind HumidityBarometerVisibility
5:00 am
Sun, Dec 4
42 °FQuite cool.3 mph79%29.92 "HgN/A
4:00 am42 °FQuite cool.2 mph81%29.93 "HgN/A
3:00 am43 °FQuite cool.3 mph78%29.94 "HgN/A
2:00 am43 °FQuite cool.3 mph72%29.94 "HgN/A
1:00 am42 °FQuite cool.2 mph83%29.95 "HgN/A
12:00 am42 °FQuite cool.2 mph86%29.96 "HgN/A
11:00 pm
Sat, Dec 3
41 °FQuite cool.3 mph95%29.99 "HgN/A
10:00 pm41 °FQuite cool.2 mph91%30.02 "HgN/A
9:00 pm42 °FQuite cool.3 mph87%30.03 "HgN/A
8:00 pm42 °FQuite cool.5 mph87%30.03 "HgN/A
7:00 pm42 °FQuite cool.2 mph90%30.06 "HgN/A
6:00 pm43 °FQuite cool.2 mph88%30.08 "HgN/A
5:00 pm46 °FCool.7 mph75%30.09 "HgN/A
4:00 pm47 °FCool.5 mph71%30.11 "HgN/A
3:00 pm46 °FCool.5 mph77%30.14 "HgN/A
2:00 pm47 °FCool.6 mph77%30.16 "HgN/A
1:00 pm47 °FCool.6 mph76%30.19 "HgN/A
12:00 pm48 °FCool.7 mph70%30.19 "HgN/A
11:00 am47 °FCool.1 mph75%30.20 "HgN/A
10:00 am45 °FCool.2 mph77%30.20 "HgN/A
9:00 am44 °FQuite cool.2 mph84%30.20 "HgN/A
8:00 am45 °FQuite cool.2 mph81%30.20 "HgN/A
7:00 am43 °FQuite cool.2 mph84%30.20 "HgN/A
6:00 am45 °FCool.2 mph82%30.19 "HgN/A
Weather by CustomWeather, © 2016

See weather overviewHow to use our weather pages